Regional Weather Roundup
Issued by NWS

Home | Current Version | Previous Version | Text Only | Print | Product List | Glossary On
Versions: 1 2 3 4 5 6 7 8 9 10 11 12 13 14 15 16 17 18 19 20 21 22 23 24 25 26 27 28 29 30 31 32 33 34 35 36 37 38 39 40 41 42 43 44 45 46 47 48 49 50
000
ASUS43 KLSX 301357
RWRMO

WEATHER SUMMARY FOR MISSOURI
NATIONAL WEATHER SERVICE SPRINGFIELD MO
900 AM CDT THU MAR 30 2017

NOTE: "FAIR" INDICATES FEW OR NO CLOUDS BELOW 12,000 FEET WITH NO
       SIGNIFICANT WEATHER AND/OR OBSTRUCTIONS TO VISIBILITY.
       CURRENT SKY AND/OR WEATHER CONDITIONS ARE NOT AVAILABLE FOR
       CHILLICOTHE AND FARMINGTON.

MOZ001>031-035>038-043-044-053-054-301500-
...NORTHERN AND WESTERN MISSOURI...

CITY           SKY/WX    TMP DP  RH WIND       PRES   REMARKS
KANSAS CTY INT CLOUDY    50  45  83 CALM      29.57S
LEE`S SUMMIT   CLOUDY    48  46  93 S9        29.57F
ST JOSEPH      CLOUDY    47  47 100 N13       29.60R FOG
CHILLICOTHE      N/A     50  50 100 CALM      29.59S

$$
MOZ066>068-077>081-088>096-101>105-301500-
...SOUTHWEST MISSOURI...

CITY           SKY/WX    TMP DP  RH WIND       PRES   REMARKS
SPRINGFIELD    CLOUDY    48  41  76 SW16G22   29.62S
JOPLIN         LGT RAIN  46  45  96 S14       29.61F FOG
BRANSON        PTSUNNY   46  39  76 SW12G18   29.65F

$$
MOZ032>034-039>042-045>050-055>058-069>072-301500-
...CENTRAL MISSOURI...

CITY           SKY/WX    TMP DP  RH WIND       PRES   REMARKS
COLUMBIA       NOT AVBL
JEFFERSON CITY CLOUDY    59  51  75 W9        29.58R
ROLLA          CLOUDY    60  58  92 SW8       29.56S
SEDALIA        CLOUDY    50  46  86 SW12      29.59F
WARRENSBURG    CLOUDY    46  43  87 S8        29.59S

$$
MOZ051-052-059>065-301500-
...EAST CENTRAL MISSOURI...

CITY           SKY/WX    TMP DP  RH WIND       PRES   REMARKS
ST LOUIS INTL  TSTM      62  60  93 SW6       29.58S
ST CHARLES     TSTM      59  59 100 E9        29.54F FOG

$$
MOZ072>076-082>087-097>100-106>115-301500-
...SOUTH CENTRAL AND SOUTHEAST MISSOURI...

CITY           SKY/WX    TMP DP  RH WIND       PRES   REMARKS
CAPE GIRARDEAU LGT RAIN  63  57  81 S17G28    29.63F
POPLAR BLUFF   CLOUDY    65  60  84 S14G25    29.61F
WEST PLAINS    LGT RAIN  59  56  89 SW13G18   29.60F

$$


USA.gov is the U.S. government's official web portal to all federal, state and local government web resources and services.